| time (UTC) | temp F | wind direction | speed MPH | gust MPH | rain 1hr in | rain 24hr in | rain mn in | humidity % | barometer mb |
| 20260509141503 | 51 | 184 | 5.0 | 9.0 | 0.00 | 0.00 | 0.00 | 66 | 1015.3 |
| 20260509140003 | 52 | 188 | 2.0 | 5.0 | 0.00 | 0.00 | 0.00 | 59 | 1015.0 |
| 20260509134502 | 53 | 215 | 2.0 | 7.0 | 0.00 | 0.00 | 0.00 | 56 | 1014.8 |
| 20260509133003 | 53 | 172 | 2.0 | 6.0 | 0.00 | 0.00 | 0.00 | 59 | 1014.7 |
| 20260509131501 | 52 | 183 | 2.0 | 8.0 | 0.00 | 0.00 | 0.00 | 58 | 1014.9 |
| 20260509130003 | 52 | 194 | 4.0 | 7.0 | 0.00 | 0.00 | 0.00 | 63 | 1015.0 |
| 20260509124600 | 51 | 198 | 3.0 | 6.0 | 0.00 | 0.00 | 0.00 | 62 | 1015.0 |
| 20260509123100 | 50 | 129 | 1.0 | 3.0 | 0.00 | 0.00 | 0.00 | 68 | 1015.1 |
| 20260509121603 | 50 | 111 | 0.0 | 2.0 | 0.00 | 0.00 | 0.00 | 68 | 1014.9 |
| 20260509120058 | 49 | 9 | 0.0 | 0.0 | 0.00 | 0.00 | 0.00 | 67 | 1014.9 |
| 20260509114540 | 48 | 9 | 0.0 | 0.0 | 0.00 | 0.00 | 0.00 | 70 | 1015.1 |
| 20260509113040 | 46 | 5 | 0.0 | 0.0 | 0.00 | 0.00 | 0.00 | 71 | 1015.2 |
| 20260509111522 | 45 | 360 | 0.0 | 0.0 | 0.00 | 0.00 | 0.00 | 75 | 1015.1 |
| 20260509110021 | 45 | 254 | 0.0 | 2.0 | 0.00 | 0.00 | 0.00 | 75 | 1015.2 |
| 20260509104510 | 44 | 292 | 1.0 | 4.0 | 0.00 | 0.00 | 0.00 | 76 | 1015.3 |
| 20260509103007 | 44 | 245 | 1.0 | 3.0 | 0.00 | 0.00 | 0.00 | 76 | 1015.2 |
| 20260509101507 | 43 | 284 | 1.0 | 4.0 | 0.00 | 0.00 | 0.00 | 78 | 1014.9 |
| 20260509100005 | 42 | 258 | 0.0 | 2.0 | 0.00 | 0.00 | 0.00 | 81 | 1014.6 |
| 20260509094502 | 41 | 316 | 0.0 | 2.0 | 0.00 | 0.00 | 0.00 | 82 | 1014.4 |
| 20260509093002 | 40 | 271 | 0.0 | 6.0 | 0.00 | 0.00 | 0.00 | 80 | 1014.4 |
| 20260509091600 | 40 | 250 | 4.0 | 6.0 | 0.00 | 0.00 | 0.00 | 80 | 1014.4 |
| 20260509090101 | 41 | 258 | 0.0 | 2.0 | 0.00 | 0.00 | 0.00 | 79 | 1014.0 |
| 20260509084604 | 41 | 294 | 0.0 | 2.0 | 0.00 | 0.00 | 0.00 | 77 | 1013.8 |
| 20260509083037 | 42 | 278 | 0.0 | 2.0 | 0.00 | 0.00 | 0.00 | 74 | 1013.9 |
| 20260509081533 | 42 | 278 | 0.0 | 2.0 | 0.00 | 0.00 | 0.00 | 73 | 1013.9 |
| 20260509080013 | 43 | 278 | 0.0 | 2.0 | 0.00 | 0.00 | 0.00 | 70 | 1013.9 |
| 20260509074511 | 44 | 277 | 1.0 | 2.0 | 0.00 | 0.00 | 0.00 | 68 | 1013.8 |
| 20260509073106 | 45 | 296 | 1.0 | 2.0 | 0.00 | 0.00 | 0.00 | 67 | 1013.7 |
| 20260509071557 | 45 | 278 | 1.0 | 3.0 | 0.00 | 0.00 | 0.00 | 67 | 1013.7 |
| 20260509070034 | 44 | 292 | 1.0 | 2.0 | 0.00 | 0.00 | 0.00 | 69 | 1013.7 |
| 20260509064533 | 45 | 279 | 1.0 | 2.0 | 0.00 | 0.00 | 0.00 | 69 | 1013.8 |
| 20260509063026 | 45 | 266 | 1.0 | 3.0 | 0.00 | 0.00 | 0.00 | 68 | 1013.8 |
| 20260509061512 | 45 | 314 | 1.0 | 2.0 | 0.00 | 0.00 | 0.00 | 67 | 1013.8 |
| 20260509060108 | 45 | 271 | 0.0 | 2.0 | 0.00 | 0.00 | 0.00 | 66 | 1013.7 |
| 20260509054553 | 45 | 304 | 1.0 | 2.0 | 0.00 | 0.00 | 0.00 | 65 | 1013.6 |
| 20260509053048 | 46 | 268 | 1.0 | 3.0 | 0.00 | 0.00 | 0.00 | 65 | 1013.6 |
| 20260509051529 | 46 | 273 | 1.0 | 1.0 | 0.00 | 0.00 | 0.00 | 63 | 1013.5 |
| 20260509050008 | 46 | 273 | 0.0 | 2.0 | 0.00 | 0.00 | 0.00 | 63 | 1013.4 |
| 20260509044505 | 47 | 281 | 1.0 | 2.0 | 0.00 | 0.00 | 0.00 | 61 | 1013.5 |
| 20260509043053 | 47 | 267 | 0.0 | 2.0 | 0.00 | 0.00 | 0.00 | 61 | 1013.3 |
| 20260509041543 | 48 | 286 | 1.0 | 2.0 | 0.00 | 0.00 | 0.00 | 58 | 1013.4 |
| 20260509040026 | 49 | 288 | 0.0 | 2.0 | 0.00 | 0.00 | 0.00 | 57 | 1013.3 |
| 20260509034520 | 49 | 271 | 0.0 | 2.0 | 0.00 | 0.00 | 0.00 | 55 | 1013.1 |
| 20260509033133 | 50 | 280 | 1.0 | 3.0 | 0.00 | 0.00 | 0.00 | 53 | 1013.0 |
| 20260509031556 | 51 | 248 | 0.0 | 3.0 | 0.00 | 0.00 | 0.00 | 51 | 1012.9 |
| 20260509030039 | 52 | 277 | 0.0 | 4.0 | 0.00 | 0.00 | 0.00 | 50 | 1012.8 |
| 20260509024536 | 52 | 276 | 2.0 | 6.0 | 0.00 | 0.00 | 0.00 | 48 | 1012.7 |
| 20260509023021 | 52 | 259 | 2.0 | 5.0 | 0.00 | 0.00 | 0.00 | 47 | 1012.7 |
| 20260509021519 | 53 | 311 | 1.0 | 6.0 | 0.00 | 0.00 | 0.00 | 47 | 1012.5 |
| 20260509020016 | 53 | 340 | 2.0 | 8.0 | 0.00 | 0.00 | 0.00 | 45 | 1012.2 |
| 20260509014526 | 53 | 281 | 2.0 | 8.0 | 0.00 | 0.00 | 0.00 | 45 | 1011.9 |
| 20260509013010 | 53 | 315 | 4.0 | 11.0 | 0.00 | 0.00 | 0.00 | 44 | 1011.8 |
| 20260509011507 | 54 | 292 | 2.0 | 9.0 | 0.00 | 0.00 | 0.00 | 43 | 1011.4 |
| 20260509010003 | 54 | 281 | 3.0 | 9.0 | 0.00 | 0.00 | 0.00 | 42 | 1011.0 |
| 20260509004500 | 54 | 289 | 3.0 | 10.0 | 0.00 | 0.00 | 0.00 | 40 | 1010.7 |
| 20260509003041 | 55 | 284 | 1.0 | 7.0 | 0.00 | 0.00 | 0.00 | 40 | 1010.3 |
| 20260509001538 | 55 | 260 | 1.0 | 6.0 | 0.00 | 0.00 | 0.00 | 39 | 1010.1 |
| 20260509000016 | 56 | 268 | 2.0 | 4.0 | 0.00 | 0.00 | 0.00 | 38 | 1009.8 |
| 20260508234513 | 57 | 319 | 2.0 | 10.0 | 0.00 | 0.00 | 0.00 | 37 | 1009.5 |
| 20260508233100 | 57 | 280 | 1.0 | 6.0 | 0.00 | 0.00 | 0.00 | 35 | 1009.2 |
| 20260508231551 | 58 | 327 | 5.0 | 10.0 | 0.00 | 0.00 | 0.00 | 33 | 1009.0 |
| 20260508230032 | 58 | 355 | 6.0 | 12.0 | 0.00 | 0.00 | 0.00 | 35 | 1008.9 |
| 20260508224528 | 58 | 324 | 8.0 | 14.0 | 0.00 | 0.00 | 0.00 | 34 | 1008.8 |
| 20260508223017 | 59 | 302 | 7.0 | 13.0 | 0.00 | 0.00 | 0.00 | 32 | 1008.7 |
| 20260508221516 | 59 | 323 | 7.0 | 12.0 | 0.00 | 0.00 | 0.00 | 32 | 1008.8 |
| 20260508220015 | 58 | 327 | 12.0 | 16.0 | 0.00 | 0.00 | 0.00 | 33 | 1008.6 |
| 20260508214524 | 59 | 300 | 5.0 | 11.0 | 0.00 | 0.00 | 0.00 | 32 | 1008.4 |
| 20260508213013 | 59 | 261 | 5.0 | 12.0 | 0.00 | 0.00 | 0.00 | 31 | 1008.4 |
| 20260508211516 | 59 | 271 | 9.0 | 14.0 | 0.00 | 0.00 | 0.00 | 32 | 1008.4 |
| 20260508210023 | 60 | 300 | 8.0 | 19.0 | 0.00 | 0.00 | 0.00 | 32 | 1008.4 |
| 20260508204510 | 60 | 266 | 9.0 | 17.0 | 0.00 | 0.00 | 0.00 | 30 | 1008.3 |
| 20260508203051 | 59 | 290 | 10.0 | 18.0 | 0.00 | 0.00 | 0.00 | 29 | 1008.2 |
| 20260508201549 | 59 | 323 | 3.0 | 13.0 | 0.00 | 0.00 | 0.00 | 30 | 1007.9 |
| 20260508200032 | 59 | 321 | 8.0 | 16.0 | 0.00 | 0.00 | 0.00 | 32 | 1008.0 |
| 20260508194528 | 59 | 280 | 8.0 | 18.0 | 0.00 | 0.00 | 0.00 | 29 | 1008.0 |
| 20260508193008 | 60 | 267 | 11.0 | 22.0 | 0.00 | 0.00 | 0.00 | 29 | 1007.8 |
| 20260508191506 | 59 | 305 | 4.0 | 20.0 | 0.00 | 0.00 | 0.00 | 31 | 1007.9 |
| 20260508190103 | 59 | 267 | 7.0 | 14.0 | 0.00 | 0.00 | 0.00 | 33 | 1007.9 |
| 20260508184548 | 59 | 232 | 8.0 | 20.0 | 0.00 | 0.00 | 0.00 | 35 | 1007.9 |
| 20260508183028 | 58 | 320 | 8.0 | 17.0 | 0.00 | 0.00 | 0.00 | 35 | 1008.1 |
| 20260508181538 | 58 | 265 | 8.0 | 16.0 | 0.00 | 0.00 | 0.00 | 35 | 1008.0 |
| 20260508180010 | 58 | 350 | 9.0 | 15.0 | 0.00 | 0.00 | 0.00 | 35 | 1008.0 |
| 20260508174512 | 58 | 248 | 8.0 | 14.0 | 0.00 | 0.00 | 0.00 | 35 | 1008.1 |
| 20260508173052 | 59 | 285 | 7.0 | 13.0 | 0.00 | 0.00 | 0.00 | 34 | 1008.1 |
| 20260508171551 | 58 | 302 | 8.0 | 16.0 | 0.00 | 0.00 | 0.00 | 35 | 1008.0 |
| 20260508170034 | 58 | 311 | 7.0 | 18.0 | 0.00 | 0.00 | 0.00 | 34 | 1008.1 |
| 20260508164534 | 57 | 292 | 5.0 | 13.0 | 0.00 | 0.00 | 0.00 | 36 | 1008.1 |
| 20260508163017 | 58 | 279 | 10.0 | 17.0 | 0.00 | 0.00 | 0.00 | 35 | 1008.3 |
| 20260508161527 | 57 | 262 | 7.0 | 16.0 | 0.00 | 0.00 | 0.00 | 34 | 1008.3 |
| 20260508160056 | 57 | 275 | 7.0 | 14.0 | 0.00 | 0.00 | 0.00 | 35 | 1008.5 |
| 20260508154556 | 57 | 287 | 5.0 | 16.0 | 0.00 | 0.00 | 0.00 | 36 | 1008.6 |
| 20260508153053 | 57 | 260 | 7.0 | 14.0 | 0.00 | 0.00 | 0.00 | 35 | 1008.6 |
| 20260508151537 | 56 | 306 | 8.0 | 15.0 | 0.00 | 0.00 | 0.00 | 35 | 1008.6 |
| 20260508150018 | 56 | 303 | 4.0 | 11.0 | 0.00 | 0.00 | 0.00 | 37 | 1008.6 |
| 20260508144518 | 55 | 295 | 8.0 | 15.0 | 0.00 | 0.00 | 0.00 | 36 | 1008.8 |
| 20260508143117 | 55 | 334 | 9.0 | 14.0 | 0.00 | 0.00 | 0.00 | 39 | 1008.9 |